Location: 22
(39.7117°N, 89.5929°W)
Time: 07:56:13
(UTC-05:00)

deb Explorer IX - Visible Passes

Search period start: 24 April 2025 00:00
Search period end: 04 May 2025 00:00
Orbit: 423 x 492 km, 38.7° (Epoch: 23 April)

Date Brightness Start Highest point End Pass type
(mag) Time Alt. Az. Time Alt. Az. Time Alt. Az.
24 Apr ? 21:18:32 10° W 21:21:52 49° SSW 21:22:20 45° SSE visible
25 Apr ? 20:40:57 10° W 20:44:20 53° SSW 20:46:35 18° ESE visible
25 Apr ? 22:20:07 10° WSW 22:20:11 10° WSW 22:20:11 10° WSW visible
26 Apr ? 21:41:33 10° WSW 21:43:39 19° SW 21:43:39 19° SW visible
27 Apr ? 21:02:13 10° W 21:05:00 23° SSW 21:06:24 18° S visible
28 Apr ? 20:22:09 10° W 20:25:07 27° SSW 20:28:03 10° SE visible
